[[{"header":{"parameterUnit":"m.s-1","parameterCategory":1,"la1":30.2992,"la2":30.254,"lo1":-89.0895,"lo2":-89.0443,"dy":0.0025,"dx":0.0025,"nx":19,"ny":19,"refTime":"2026-03-08T03:00:00:Z","depth":0,"parameterNumber":2,"parameterNumberName":"U-component_of_WINDS"},"data":[0,0,0,-1.6532,-1.6532,-1.6524,-1.6524,-1.6528,-1.6528,0,0,0,0,0,0,0,0,0,0,0,-1.6542,-1.6542,-1.6532,-1.6532,-1.6524,-1.6524,-1.6528,-1.6528,0,0,0,0,0,0,0,0,0,0,0,-1.6541,-1.6542,-1.6542,-1.6532,-1.6524,-1.6524,-1.6528,-1.6529,0,0,0,0,0,0,0,0,0,0,-1.6534,-1.655,-1.6542,-1.6542,-1.6532,-1.6524,-1.6524,-1.6529,-1.6529,-1.6537,0,-1.6545,0,-1.6537,-1.6529,-1.6529,0,0,0,-1.6527,-1.655,-1.6541,-1.6542,-1.6532,-1.6524,-1.6526,-1.6529,-1.6529,-1.6537,-1.6545,-1.6545,-1.6537,-1.6529,-1.6529,-1.6591,-1.6592,0,0,-1.6527,-1.6544,-1.6541,-1.6542,-1.6543,-1.6527,-1.6526,-1.6529,-1.6539,-1.6545,-1.6544,-1.6537,-1.6529,-1.6529,-1.6591,-1.6592,0,0,0,-1.6532,-1.6545,-1.6536,-1.6542,-1.6539,-1.6527,-1.6526,-1.6538,-1.6534,-1.6544,-1.6537,-1.6529,-1.6529,-1.659,-1.6591,-1.6634,0,0,0,-1.6532,-1.6547,-1.6536,-1.6546,-1.654,-1.6539,-1.6536,-1.6534,-1.6534,-1.6537,-1.6529,-1.653,-1.659,-1.6591,-1.6632,-1.6651,0,0,0,-1.654,-1.6548,-1.6549,-1.6547,-1.6545,-1.6538,-1.6534,-1.6533,-1.6529,-1.6529,-1.653,-1.6589,-1.659,-1.6629,-1.6648,-1.6673,0,0,0,-1.6553,-1.6588,-1.655,-1.6587,-1.6545,-1.6565,-1.6534,-1.6548,-1.6553,-1.6529,-1.659,-1.6591,-1.6629,-1.6645,-1.6671,-1.6697,-1.671,0,0,-1.6606,-1.6595,-1.6615,-1.6581,-1.6612,-1.6565,-1.6602,-1.6591,-1.6575,-1.6587,-1.6588,-1.6632,-1.6647,-1.6672,-1.6775,-1.6785,0,0,0,-1.6637,-1.6652,-1.6657,-1.6662,-1.6654,-1.665,-1.6631,-1.6627,-1.6636,-1.6585,-1.6648,-1.6656,-1.667,-1.6682,-1.6691,-1.6702,-1.6597,-1.6597,-1.6597,-1.6737,-1.6716,-1.6748,-1.6726,-1.6732,-1.6713,-1.6716,-1.6708,-1.6684,-1.67,-1.6703,-1.6768,-1.6782,-1.6788,-1.68,-1.6715,-1.6716,-1.6716,-1.6716,-1.6813,-1.6831,-1.68,-1.682,-1.6798,-1.6815,-1.6799,-1.6782,-1.6795,-1.6763,-1.6775,-1.6742,-1.68,-1.681,-1.6719,-1.6718,-1.6718,-1.6718,-1.6718,-1.6876,-1.6881,-1.6875,-1.6882,-1.689,-1.6867,-1.6882,-1.6861,-1.6842,-1.6853,-1.6854,-1.6854,-1.685,-1.6855,-1.6856,-1.6856,-1.6856,-1.6856,-1.6856,-1.6943,-1.6935,-1.6949,-1.6945,-1.6947,-1.6947,-1.6929,-1.693,-1.6926,-1.691,-1.691,-1.6886,-1.681,-1.6791,-1.686,-1.6859,-1.6859,-1.6858,-1.6858,-1.7027,-1.7005,-1.7027,-1.7029,-1.7023,-1.7033,-1.7007,-1.7011,-1.7009,-1.7017,-1.6991,-1.6938,-1.6925,-1.6918,-1.6902,-1.6995,-1.6995,-1.6995,-1.6995,-1.708,-1.7071,-1.709,-1.7094,-1.7096,-1.7075,-1.7102,-1.7089,-1.7073,-1.7071,-1.7054,-1.7032,-1.7026,-1.7016,-1.7007,-1.6992,-1.7106,-1.7106,-1.7106,-1.7131,-1.7122,-1.7148,-1.7131,-1.7126,-1.7122,-1.7146,-1.7153,-1.713,-1.711,-1.7069,-1.7064,-1.7028,-1.7017,-1.6995,-1.6981,-1.6953,0,0]},{"header":{"parameterUnit":"m.s-1","parameterCategory":1,"la1":30.2992,"la2":30.254,"lo1":-89.0895,"lo2":-89.0443,"dy":0.0025,"dx":0.0025,"nx":19,"ny":19,"refTime":"2026-03-08T03:00:00:Z","depth":0,"parameterNumber":3,"parameterNumberName":"V-component_of_WINDS"},"data":[0,0,0,2.3081,2.308,2.3039,2.3039,2.2988,2.2987,0,0,0,0,0,0,0,0,0,0,0,2.3093,2.3092,2.3081,2.308,2.3039,2.3039,2.2988,2.2987,0,0,0,0,0,0,0,0,0,0,0,2.3093,2.3092,2.3092,2.308,2.3039,2.3039,2.2988,2.3018,0,0,0,0,0,0,0,0,0,0,2.3057,2.3069,2.3093,2.3092,2.3079,2.3039,2.3039,2.302,2.3016,2.3006,0,2.2997,0,2.2991,2.2984,2.2984,0,0,0,2.3079,2.3071,2.3061,2.3092,2.3079,2.3039,2.3057,2.3018,2.3014,2.3002,2.2996,2.2994,2.2991,2.2983,2.2983,2.2928,2.2927,0,0,2.3082,2.3085,2.3063,2.3058,2.3065,2.3059,2.3056,2.3015,2.301,2.2996,2.2993,2.299,2.2983,2.2983,2.2928,2.2928,0,0,0,2.3088,2.3087,2.3077,2.306,2.3053,2.3058,2.3055,2.3011,2.3008,2.2993,2.2989,2.2983,2.2982,2.2928,2.2928,2.292,0,0,0,2.309,2.3091,2.3078,2.308,2.3054,2.3032,2.3052,2.3011,2.3006,2.2989,2.2983,2.2982,2.2928,2.2928,2.2921,2.2915,0,0,0,2.3095,2.3091,2.3086,2.308,2.3063,2.3032,2.3026,2.301,2.3004,2.2984,2.2982,2.2928,2.2928,2.2921,2.2917,2.2903,0,0,0,2.3102,2.3077,2.3085,2.3057,2.3063,2.3028,2.3027,2.3,2.2981,2.2983,2.2928,2.2928,2.2922,2.2917,2.2904,2.2893,2.2888,0,0,2.3073,2.3074,2.3057,2.3063,2.3028,2.3034,2.2997,2.2976,2.297,2.2942,2.2941,2.2921,2.2917,2.2903,2.2861,2.2858,0,0,0,2.3049,2.3037,2.3027,2.301,2.2995,2.2982,2.2966,2.2959,2.2935,2.2957,2.2912,2.2909,2.2901,2.2896,2.2893,2.2886,2.2925,2.2925,2.2925,2.3012,2.3008,2.2981,2.2972,2.2956,2.2942,2.2929,2.2917,2.2915,2.2905,2.2896,2.2872,2.2865,2.2863,2.2856,2.289,2.289,2.289,2.289,2.297,2.2953,2.2955,2.2929,2.2925,2.2903,2.2889,2.2889,2.2869,2.2877,2.287,2.288,2.286,2.2854,2.2889,2.2889,2.2889,2.2889,2.2889,2.2946,2.2937,2.293,2.2907,2.2891,2.2883,2.2864,2.286,2.2857,2.285,2.2841,2.2842,2.2842,2.2846,2.2846,2.2846,2.2846,2.2846,2.2846,2.2924,2.2916,2.29,2.2884,2.2875,2.2861,2.2849,2.2839,2.2828,2.2827,2.2827,2.2828,2.2858,2.2867,2.2844,2.2845,2.2845,2.2845,2.2845,2.2883,2.2892,2.2868,2.2859,2.2841,2.2826,2.2823,2.2804,2.2795,2.2787,2.279,2.2813,2.2813,2.2815,2.2822,2.279,2.279,2.279,2.279,2.2863,2.2863,2.284,2.2825,2.2811,2.2806,2.2781,2.2772,2.2764,2.2759,2.2763,2.2772,2.2775,2.2774,2.2777,2.2783,2.2742,2.2741,2.2741,2.2838,2.2838,2.2816,2.281,2.2796,2.2785,2.2762,2.2746,2.2738,2.2739,2.2755,2.2757,2.2771,2.2776,2.2777,2.2782,2.2793,0,0]}]]